| time (UTC) | temp F | wind direction | speed MPH | gust MPH | rain 1hr in | rain 24hr in | rain mn in | humidity % | barometer mb |
| 20260506020900 | 48 | 0.0 | 2.0 | 0.00 | 0.00 | 0.00 | 84 | 1016.6 | |
| 20260506015925 | 48 | 0.0 | 1.0 | 0.00 | 0.00 | 0.00 | 83 | 1016.7 | |
| 20260506014901 | 48 | 148 | 0.0 | 1.0 | 0.00 | 0.00 | 0.00 | 83 | 1016.5 |
| 20260506013824 | 48 | 139 | 1.0 | 2.0 | 0.00 | 0.00 | 0.00 | 82 | 1016.6 |
| 20260506012822 | 48 | 146 | 1.0 | 1.0 | 0.00 | 0.00 | 0.00 | 81 | 1016.6 |
| 20260506011738 | 48 | 180 | 2.0 | 2.0 | 0.00 | 0.00 | 0.00 | 81 | 1016.8 |
| 20260506010843 | 48 | 150 | 0.0 | 1.0 | 0.00 | 0.00 | 0.00 | 80 | 1017.1 |
| 20260506005739 | 48 | 166 | 0.0 | 3.0 | 0.00 | 0.00 | 0.00 | 79 | 1016.6 |
| 20260506004824 | 48 | 195 | 1.0 | 3.0 | 0.00 | 0.00 | 0.00 | 79 | 1016.8 |
| 20260506003740 | 48 | 142 | 2.0 | 3.0 | 0.00 | 0.00 | 0.00 | 79 | 1016.7 |
| 20260506002824 | 49 | 166 | 1.0 | 1.0 | 0.00 | 0.00 | 0.00 | 81 | 1016.7 |
| 20260506001740 | 49 | 186 | 1.0 | 2.0 | 0.00 | 0.00 | 0.00 | 81 | 1016.7 |
| 20260506000825 | 49 | 202 | 3.0 | 3.0 | 0.00 | 0.00 | 0.00 | 81 | 1016.6 |
| 20260505235741 | 50 | 175 | 2.0 | 3.0 | 0.00 | 0.00 | 0.00 | 82 | 1016.7 |
| 20260505234826 | 50 | 161 | 0.0 | 1.0 | 0.00 | 0.00 | 0.00 | 83 | 1016.7 |
| 20260505233742 | 50 | 186 | 1.0 | 2.0 | 0.00 | 0.00 | 0.00 | 82 | 1016.8 |
| 20260505232827 | 50 | 173 | 1.0 | 2.0 | 0.00 | 0.00 | 0.00 | 82 | 1016.7 |
| 20260505231743 | 50 | 166 | 1.0 | 2.0 | 0.00 | 0.00 | 0.00 | 81 | 1016.7 |
| 20260505230727 | 50 | 160 | 2.0 | 2.0 | 0.00 | 0.00 | 0.00 | 82 | 1016.8 |
| 20260505225643 | 51 | 174 | 1.0 | 1.0 | 0.00 | 0.00 | 0.00 | 82 | 1016.6 |
| 20260505224728 | 51 | 70 | 0.0 | 2.0 | 0.00 | 0.00 | 0.00 | 81 | 1016.4 |
| 20260505223645 | 51 | 187 | 1.0 | 2.0 | 0.00 | 0.00 | 0.00 | 80 | 1016.8 |
| 20260505222809 | 51 | 186 | 1.0 | 3.0 | 0.00 | 0.00 | 0.00 | 79 | 1016.9 |
| 20260505221645 | 51 | 51 | 1.0 | 2.0 | 0.00 | 0.00 | 0.00 | 79 | 1016.7 |
| 20260505220750 | 51 | 51 | 1.0 | 2.0 | 0.00 | 0.00 | 0.00 | 78 | 1016.7 |
| 20260505215707 | 52 | 50 | 2.0 | 5.0 | 0.00 | 0.00 | 0.00 | 77 | 1016.3 |
| 20260505214730 | 52 | 167 | 1.0 | 3.0 | 0.00 | 0.00 | 0.00 | 76 | 1016.7 |
| 20260505213647 | 52 | 145 | 2.0 | 3.0 | 0.00 | 0.00 | 0.00 | 76 | 1016.4 |
| 20260505212731 | 53 | 163 | 1.0 | 2.0 | 0.00 | 0.00 | 0.00 | 77 | 1016.5 |
| 20260505211708 | 53 | 172 | 1.0 | 2.0 | 0.00 | 0.00 | 0.00 | 77 | 1016.3 |
| 20260505210604 | 53 | 147 | 3.0 | 3.0 | 0.00 | 0.00 | 0.00 | 76 | 1016.2 |
| 20260505205533 | 54 | 178 | 1.0 | 2.0 | 0.00 | 0.00 | 0.00 | 76 | 1015.9 |
| 20260505204625 | 55 | 147 | 1.0 | 2.0 | 0.00 | 0.00 | 0.00 | 74 | 1016.0 |
| 20260505203534 | 54 | 154 | 0.0 | 1.0 | 0.00 | 0.00 | 0.00 | 72 | 1015.8 |
| 20260505202626 | 54 | 155 | 0.0 | 1.0 | 0.00 | 0.00 | 0.00 | 71 | 1015.8 |
| 20260505201555 | 55 | 147 | 0.0 | 1.0 | 0.00 | 0.00 | 0.00 | 70 | 1015.7 |
| 20260505200607 | 55 | 165 | 1.0 | 2.0 | 0.00 | 0.00 | 0.00 | 70 | 1015.8 |
| 20260505195536 | 55 | 152 | 1.0 | 1.0 | 0.00 | 0.00 | 0.00 | 70 | 1015.9 |
| 20260505194607 | 55 | 138 | 1.0 | 2.0 | 0.00 | 0.00 | 0.00 | 68 | 1015.6 |
| 20260505193536 | 55 | 133 | 0.0 | 2.0 | 0.00 | 0.00 | 0.00 | 70 | 1015.5 |
| 20260505192628 | 55 | 136 | 1.0 | 1.0 | 0.00 | 0.00 | 0.00 | 71 | 1015.4 |
| 20260505191537 | 56 | 152 | 0.0 | 2.0 | 0.00 | 0.00 | 0.00 | 69 | 1015.4 |
| 20260505190610 | 56 | 157 | 0.0 | 1.0 | 0.00 | 0.00 | 0.00 | 69 | 1015.4 |
| 20260505185537 | 56 | 156 | 1.0 | 2.0 | 0.00 | 0.00 | 0.00 | 68 | 1015.3 |
| 20260505184610 | 56 | 113 | 1.0 | 1.0 | 0.00 | 0.00 | 0.00 | 68 | 1015.1 |
| 20260505183539 | 57 | 99 | 1.0 | 1.0 | 0.00 | 0.00 | 0.00 | 68 | 1015.1 |
| 20260505182611 | 57 | 136 | 2.0 | 2.0 | 0.00 | 0.00 | 0.00 | 68 | 1015.3 |
| 20260505181539 | 57 | 131 | 1.0 | 1.0 | 0.00 | 0.00 | 0.00 | 68 | 1015.1 |
| 20260505180612 | 57 | 153 | 1.0 | 3.0 | 0.00 | 0.00 | 0.00 | 67 | 1015.1 |
| 20260505175541 | 57 | 143 | 1.0 | 2.0 | 0.00 | 0.00 | 0.00 | 68 | 1015.0 |
| 20260505174612 | 57 | 156 | 1.0 | 2.0 | 0.00 | 0.00 | 0.00 | 67 | 1015.3 |
| 20260505173541 | 57 | 173 | 1.0 | 1.0 | 0.00 | 0.00 | 0.00 | 66 | 1015.2 |
| 20260505172613 | 58 | 136 | 1.0 | 5.0 | 0.00 | 0.00 | 0.00 | 68 | 1015.2 |
| 20260505171542 | 58 | 131 | 1.0 | 3.0 | 0.00 | 0.00 | 0.00 | 67 | 1015.2 |
| 20260505170614 | 58 | 119 | 1.0 | 3.0 | 0.00 | 0.00 | 0.00 | 67 | 1015.2 |
| 20260505165604 | 58 | 132 | 1.0 | 3.0 | 0.00 | 0.00 | 0.00 | 67 | 1015.6 |
| 20260505164443 | 58 | 135 | 1.0 | 5.0 | 0.00 | 0.00 | 0.00 | 66 | 1015.2 |
| 20260505163359 | 58 | 103 | 3.0 | 3.0 | 0.00 | 0.00 | 0.00 | 67 | 1015.4 |
| 20260505162412 | 58 | 161 | 1.0 | 3.0 | 0.00 | 0.00 | 0.00 | 67 | 1015.3 |
| 20260505161401 | 58 | 112 | 1.0 | 3.0 | 0.00 | 0.00 | 0.00 | 66 | 1015.3 |
| 20260505160413 | 58 | 114 | 3.0 | 6.0 | 0.00 | 0.00 | 0.00 | 66 | 1015.2 |
| 20260505153342 | 59 | 212 | 3.0 | 3.0 | 0.00 | 0.00 | 0.00 | 64 | 1015.4 |
| 20260505152259 | 59 | 137 | 1.0 | 3.0 | 0.00 | 0.00 | 0.00 | 65 | 1015.4 |
| 20260505151418 | 59 | 133 | 1.0 | 2.0 | 0.00 | 0.00 | 0.00 | 63 | 1015.4 |
| 20260505150238 | 59 | 116 | 2.0 | 5.0 | 0.00 | 0.00 | 0.00 | 65 | 1015.3 |
| 20260505140213 | 60 | 131 | 0.0 | 1.0 | 0.00 | 0.00 | 0.00 | 63 | 1015.7 |
| 20260505130116 | 60 | 181 | 1.0 | 2.0 | 0.00 | 0.00 | 0.00 | 64 | 1015.9 |
| 20260505124118 | 59 | 187 | 1.0 | 2.0 | 0.00 | 0.00 | 0.00 | 66 | 1015.6 |
| 20260505123045 | 60 | 167 | 0.0 | 2.0 | 0.00 | 0.00 | 0.00 | 64 | 1015.8 |
| 20260505121946 | 60 | 147 | 1.0 | 2.0 | 0.00 | 0.00 | 0.00 | 66 | 1016.0 |
| 20260505121019 | 60 | 147 | 2.0 | 3.0 | 0.00 | 0.00 | 0.00 | 64 | 1015.8 |
| 20260505120027 | 61 | 140 | 1.0 | 2.0 | 0.00 | 0.00 | 0.00 | 63 | 1015.9 |
| 20260505115020 | 61 | 0.0 | 1.0 | 0.00 | 0.00 | 0.00 | 64 | 1015.8 | |
| 20260505113948 | 59 | 134 | 1.0 | 3.0 | 0.00 | 0.00 | 0.00 | 69 | 1015.9 |
| 20260505112925 | 58 | 195 | 1.0 | 5.0 | 0.00 | 0.00 | 0.00 | 68 | 1016.0 |
| 20260505111821 | 59 | 128 | 1.0 | 2.0 | 0.00 | 0.00 | 0.00 | 68 | 1016.3 |
| 20260505110905 | 60 | 194 | 2.0 | 3.0 | 0.00 | 0.00 | 0.00 | 67 | 1016.1 |
| 20260505101843 | 57 | 192 | 3.0 | 5.0 | 0.00 | 0.00 | 0.00 | 73 | 1016.7 |
| 20260505100907 | 57 | 168 | 1.0 | 2.0 | 0.00 | 0.00 | 0.00 | 74 | 1016.5 |
| 20260505095824 | 56 | 0.0 | 1.0 | 0.00 | 0.00 | 0.00 | 77 | 1016.6 | |
| 20260505094909 | 56 | 154 | 1.0 | 2.0 | 0.00 | 0.00 | 0.00 | 76 | 1016.6 |
| 20260505093825 | 55 | 186 | 1.0 | 1.0 | 0.00 | 0.00 | 0.00 | 78 | 1016.7 |
| 20260505092929 | 55 | 170 | 0.0 | 2.0 | 0.00 | 0.00 | 0.00 | 78 | 1016.5 |
| 20260505091847 | 55 | 100 | 1.0 | 1.0 | 0.00 | 0.00 | 0.00 | 79 | 1016.6 |
| 20260505090910 | 55 | 170 | 1.0 | 2.0 | 0.00 | 0.00 | 0.00 | 78 | 1016.7 |
| 20260505085827 | 56 | 172 | 0.0 | 2.0 | 0.00 | 0.00 | 0.00 | 76 | 1016.7 |
| 20260505084910 | 55 | 131 | 0.0 | 1.0 | 0.00 | 0.00 | 0.00 | 78 | 1016.6 |
| 20260505083828 | 54 | 157 | 2.0 | 2.0 | 0.00 | 0.00 | 0.00 | 79 | 1016.7 |
| 20260505082911 | 52 | 141 | 2.0 | 5.0 | 0.00 | 0.00 | 0.00 | 81 | 1016.9 |
| 20260505081828 | 53 | 124 | 2.0 | 2.0 | 0.00 | 0.00 | 0.00 | 80 | 1017.0 |
| 20260505080756 | 52 | 134 | 1.0 | 6.0 | 0.00 | 0.00 | 0.00 | 80 | 1016.9 |
| 20260505075728 | 52 | 139 | 1.0 | 3.0 | 0.00 | 0.00 | 0.00 | 82 | 1017.0 |
| 20260505074813 | 50 | 150 | 1.0 | 2.0 | 0.00 | 0.00 | 0.00 | 84 | 1016.9 |
| 20260505073730 | 50 | 0.0 | 1.0 | 0.00 | 0.00 | 0.00 | 87 | 1016.8 | |
| 20260505072813 | 49 | 139 | 0.0 | 2.0 | 0.00 | 0.00 | 0.00 | 88 | 1016.9 |
| 20260505071730 | 49 | 136 | 1.0 | 1.0 | 0.00 | 0.00 | 0.00 | 89 | 1016.9 |
| 20260505070814 | 48 | 133 | 1.0 | 2.0 | 0.00 | 0.00 | 0.00 | 90 | 1016.9 |
| 20260505065731 | 48 | 119 | 0.0 | 2.0 | 0.00 | 0.00 | 0.00 | 93 | 1016.9 |
| 20260505064816 | 48 | 0.0 | 1.0 | 0.00 | 0.00 | 0.00 | 94 | 1017.0 | |
| 20260505063732 | 48 | 142 | 0.0 | 1.0 | 0.00 | 0.00 | 0.00 | 96 | 1017.0 |
| 20260505062816 | 48 | 113 | 2.0 | 2.0 | 0.00 | 0.00 | 0.00 | 97 | 1017.0 |
| 20260505061733 | 48 | 0.0 | 1.0 | 0.00 | 0.00 | 0.00 | 98 | 1017.1 | |
| 20260505060818 | 47 | 0.0 | 0.0 | 0.00 | 0.00 | 0.00 | 98 | 1017.0 | |
| 20260505055734 | 46 | 0.0 | 0.0 | 0.00 | 0.00 | 0.00 | 98 | 1017.2 | |
| 20260505054703 | 46 | 0.0 | 0.0 | 0.00 | 0.00 | 0.00 | 98 | 1017.4 | |
| 20260505053636 | 46 | 0.0 | 0.0 | 0.00 | 0.00 | 0.00 | 98 | 1017.3 | |
| 20260505052739 | 46 | 0.0 | 0.0 | 0.00 | 0.00 | 0.00 | 98 | 1017.4 | |
| 20260505051735 | 46 | 0.0 | 0.0 | 0.00 | 0.00 | 0.00 | 98 | 1017.2 | |
| 20260505050720 | 45 | 0.0 | 0.0 | 0.00 | 0.00 | 0.00 | 98 | 1017.4 | |
| 20260505041606 | 45 | 312 | 0.0 | 1.0 | 0.00 | 0.00 | 0.00 | 98 | 1017.3 |
| 20260505040522 | 45 | 289 | 0.0 | 1.0 | 0.00 | 0.00 | 0.00 | 98 | 1017.2 |
| 20260505035647 | 44 | 0.0 | 0.0 | 0.00 | 0.00 | 0.00 | 98 | 1017.1 | |
| 20260505034523 | 44 | 0.0 | 0.0 | 0.00 | 0.00 | 0.00 | 97 | 1017.0 | |
| 20260505033627 | 44 | 0.0 | 0.0 | 0.00 | 0.00 | 0.00 | 97 | 1016.9 | |
| 20260505032524 | 44 | 0.0 | 0.0 | 0.00 | 0.00 | 0.00 | 97 | 1016.9 | |
| 20260505031608 | 45 | 0.0 | 0.0 | 0.00 | 0.00 | 0.00 | 97 | 1017.0 | |
| 20260505030605 | 45 | 0.0 | 0.0 | 0.00 | 0.00 | 0.00 | 97 | 1016.9 | |
| 20260505025609 | 46 | 0.0 | 0.0 | 0.00 | 0.00 | 0.00 | 97 | 1017.3 | |
| 20260505024525 | 46 | 0.0 | 0.0 | 0.00 | 0.00 | 0.00 | 97 | 1017.2 | |
| 20260505023610 | 47 | 0.0 | 1.0 | 0.00 | 0.00 | 0.00 | 97 | 1017.2 | |
| 20260505022526 | 47 | 157 | 1.0 | 2.0 | 0.00 | 0.00 | 0.00 | 97 | 1017.1 |
| 20260505021631 | 47 | 136 | 1.0 | 1.0 | 0.00 | 0.00 | 0.00 | 97 | 1017.2 |